User: anonymous
Location: Unspecified
(0.0000°N, 0.0000°E)
Time: 01:04:59
(UTC+00:00)
Language:

OPTUS D1 - Orbit

View from above orbital plane
View from above orbital plane
View from above satellite
View from above satellite

Ground track
Ground track

The orbit data is extracted from the following two-line orbital elements,

1 29495U 06043B   14206.20520817 -.00000127  00000-0  10000-3 0  5306
2 29495 000.0196 302.2931 0003442 168.8788 065.5049 01.00271325 28578
Epoch (UTC): 25 July 2014 04:55:29
Eccentricity: 0.0003442
inclination: 0.0196°
perigee height: 35772 km
apogee height: 35801 km
right ascension of ascending node: 302.2931°
argument of perigee: 168.8788°
revolutions per day: 1.00271325
mean anomaly at epoch: 65.5049°
orbit number at epoch: 2857

The dashed part of the orbit path shows where the satellite is in the earth's shadow,  

DLR